When you browse on this site, cookies collect data to enhance your experience and personalize the content and advertising you see.
Visit our Privacy Policy to learn more. By continuing to use the site, you agree to this use of cookies and data.
  • In Spain
  • List of Countries
  • For 7 days
  • Water Temperature
  • Weather Map
  • Weather Widgets
  • user-avatar
    Login

    Hourly Weather Oksford

    Today, 15 September, Sunday

    Time Temperature Precipitation Wind Pressure Humidity
    00:00 +13°C° 0 mm 2 mps 764 mmHg 73%
    01:00 +12°C° 0 mm 3 mps 764 mmHg 76%
    02:00 +11°C° 0 mm 3 mps 764 mmHg 79%
    03:00 +11°C° 0 mm 3 mps 763 mmHg 81%
    04:00 +11°C° 0 mm 3 mps 763 mmHg 84%
    05:00 +12°C° 0 mm 2 mps 763 mmHg 86%
    06:00 +12°C° 0 mm 2 mps 763 mmHg 88%
    07:00 +13°C° 0 mm 3 mps 763 mmHg 82%
    08:00 +16°C° 0 mm 3 mps 763 mmHg 75%
    09:00 +18°C° 0 mm 3 mps 763 mmHg 69%
    10:00 +19°C° 0 mm 3 mps 763 mmHg 67%
    11:00 +21°C° 0 mm 3 mps 763 mmHg 66%
    12:00 +22°C° 0 mm 3 mps 763 mmHg 64%
    13:00 +22°C° 0 mm 3 mps 762 mmHg 65%
    14:00 +24°C° 0 mm 3 mps 762 mmHg 65%
    15:00 +23°C° 0 mm 4 mps 762 mmHg 66%
    16:00 +22°C° 0 mm 3 mps 762 mmHg 71%
    17:00 +20°C° 0 mm 2 mps 761 mmHg 77%
    18:00 +19°C° 0 mm 2 mps 761 mmHg 83%
    19:00 +18°C° 0 mm 2 mps 761 mmHg 86%
    20:00 +18°C° 0 mm 2 mps 761 mmHg 89%
    21:00 +17°C° 0 mm 2 mps 761 mmHg 92%
    22:00 +16°C° 0 mm 2 mps 761 mmHg 93%
    23:00 +16°C° 0 mm 2 mps 761 mmHg 94%

    Tomorrow, 16 September, Monday

    Time Temperature Precipitation Wind Pressure Humidity
    00:00 +16°C° 0 mm 2 mps 761 mmHg 95%
    01:00 +16°C° 0 mm 2 mps 760 mmHg 94%
    02:00 +16°C° 0 mm 2 mps 760 mmHg 94%
    03:00 +14°C° 0 mm 3 mps 760 mmHg 94%
    04:00 +16°C° 0 mm 3 mps 760 mmHg 93%
    05:00 +16°C° 0 mm 3 mps 759 mmHg 93%
    06:00 +16°C° 0 mm 3 mps 759 mmHg 92%
    07:00 +16°C° 0 mm 3 mps 759 mmHg 90%
    08:00 +17°C° 0 mm 3 mps 760 mmHg 88%
    09:00 +17°C° 0 mm 3 mps 760 mmHg 86%
    10:00 +18°C° 0 mm 3 mps 760 mmHg 84%
    11:00 +19°C° 0 mm 3 mps 760 mmHg 81%
    12:00 +20°C° 0 mm 3 mps 760 mmHg 79%
    13:00 +19°C° 0 mm 3 mps 760 mmHg 79%
    14:00 +19°C° 0 mm 3 mps 760 mmHg 80%
    15:00 +18°C° 0 mm 3 mps 761 mmHg 80%
    16:00 +18°C° 0 mm 3 mps 761 mmHg 80%
    17:00 +17°C° 0 mm 3 mps 761 mmHg 81%
    18:00 +17°C° 0 mm 2 mps 761 mmHg 81%
    19:00 +16°C° 0 mm 3 mps 761 mmHg 80%
    20:00 +14°C° 0 mm 3 mps 762 mmHg 79%
    21:00 +13°C° 0 mm 3 mps 762 mmHg 78%
    22:00 +12°C° 0 mm 3 mps 762 mmHg 80%
    23:00 +11°C° 0 mm 3 mps 763 mmHg 83%

    Day after tomorrow, 17 September, Tuesday

    Time Temperature Precipitation Wind Pressure Humidity
    00:00 +10°C° 0 mm 2 mps 763 mmHg 86%
    01:00 +9°C° 0 mm 2 mps 763 mmHg 88%
    02:00 +9°C° 0 mm 2 mps 763 mmHg 91%
    03:00 +9°C° 0 mm 2 mps 763 mmHg 93%
    04:00 +8°C° 0 mm 2 mps 763 mmHg 94%
    05:00 +8°C° 0 mm 2 mps 763 mmHg 94%
    06:00 +8°C° 0 mm 2 mps 763 mmHg 94%
    07:00 +10°C° 0 mm 2 mps 764 mmHg 86%
    08:00 +12°C° 0 mm 2 mps 764 mmHg 78%
    09:00 +14°C° 0 mm 2 mps 764 mmHg 70%
    10:00 +15°C° 0 mm 2 mps 764 mmHg 65%
    11:00 +16°C° 0 mm 3 mps 764 mmHg 59%
    12:00 +17°C° 0 mm 3 mps 764 mmHg 54%
    13:00 +18°C° 0 mm 3 mps 764 mmHg 52%
    14:00 +18°C° 0 mm 3 mps 763 mmHg 50%
    15:00 +18°C° 0 mm 3 mps 763 mmHg 49%
    16:00 +17°C° 0 mm 3 mps 763 mmHg 55%
    17:00 +16°C° 0 mm 2 mps 763 mmHg 60%
    18:00 +15°C° 0 mm 2 mps 763 mmHg 66%
    19:00 +14°C° 0 mm 2 mps 764 mmHg 69%
    20:00 +13°C° 0 mm 2 mps 764 mmHg 72%
    21:00 +12°C° 0 mm 2 mps 764 mmHg 75%
    22:00 +10°C° 0 mm 2 mps 764 mmHg 78%
    23:00 +10°C° 0 mm 2 mps 764 mmHg 80%

    18 September, Wednesday

    Time Temperature Precipitation Wind Pressure Humidity
    00:00 +10°C° 0 mm 1 mps 765 mmHg 83%
    01:00 +10°C° 0 mm 1 mps 765 mmHg 84%
    02:00 +9°C° 0 mm 1 mps 765 mmHg 85%
    03:00 +9°C° 0 mm 1 mps 765 mmHg 86%
    04:00 +8°C° 0 mm 0 mps 765 mmHg 86%
    05:00 +8°C° 0 mm 0 mps 765 mmHg 87%
    06:00 +8°C° 0 mm 0 mps 765 mmHg 87%
    07:00 +10°C° 0 mm 0 mps 765 mmHg 80%
    08:00 +11°C° 0 mm 0 mps 765 mmHg 73%
    09:00 +13°C° 0 mm 0 mps 766 mmHg 66%
    10:00 +15°C° 0 mm 0 mps 766 mmHg 63%
    11:00 +18°C° 0 mm 1 mps 766 mmHg 59%
    12:00 +19°C° 0 mm 1 mps 766 mmHg 55%
    13:00 +19°C° 0 mm 1 mps 765 mmHg 56%
    14:00 +18°C° 0 mm 2 mps 765 mmHg 57%
    15:00 +19°C° 0 mm 2 mps 765 mmHg 58%
    16:00 +17°C° 0 mm 2 mps 765 mmHg 64%
    17:00 +16°C° 0 mm 2 mps 765 mmHg 70%
    18:00 +15°C° 0 mm 2 mps 765 mmHg 76%
    19:00 +15°C° 0 mm 2 mps 766 mmHg 78%
    20:00 +14°C° 0 mm 2 mps 766 mmHg 81%
    21:00 +13°C° 0 mm 2 mps 767 mmHg 84%
    22:00 +13°C° 0 mm 2 mps 767 mmHg 84%
    23:00 +13°C° 0 mm 2 mps 767 mmHg 84%

    19 September, Thursday

    Time Temperature Precipitation Wind Pressure Humidity
    00:00 +13°C° 0 mm 2 mps 767 mmHg 84%
    01:00 +12°C° 0 mm 2 mps 767 mmHg 86%
    02:00 +10°C° 0 mm 2 mps 767 mmHg 88%
    03:00 +10°C° 0 mm 2 mps 767 mmHg 90%
    04:00 +9°C° 0 mm 2 mps 767 mmHg 92%
    05:00 +9°C° 0 mm 2 mps 767 mmHg 93%
    06:00 +8°C° 0 mm 2 mps 767 mmHg 95%
    07:00 +10°C° 0 mm 3 mps 768 mmHg 88%
    08:00 +12°C° 0 mm 3 mps 768 mmHg 81%
    09:00 +13°C° 0 mm 4 mps 768 mmHg 74%
    10:00 +14°C° 0 mm 4 mps 769 mmHg 69%
    11:00 +15°C° 0 mm 4 mps 769 mmHg 64%
    12:00 +17°C° 0 mm 4 mps 769 mmHg 58%
    13:00 +18°C° 0 mm 4 mps 768 mmHg 56%
    14:00 +18°C° 0 mm 4 mps 768 mmHg 53%
    15:00 +18°C° 0 mm 4 mps 768 mmHg 51%
    16:00 +17°C° 0 mm 3 mps 768 mmHg 54%
    17:00 +14°C° 0 mm 3 mps 768 mmHg 58%
    18:00 +13°C° 0 mm 3 mps 768 mmHg 61%
    19:00 +12°C° 0 mm 3 mps 768 mmHg 65%
    20:00 +11°C° 0 mm 3 mps 769 mmHg 69%
    21:00 +10°C° 0 mm 3 mps 769 mmHg 73%
    22:00 +9°C° 0 mm 3 mps 769 mmHg 76%
    23:00 +9°C° 0 mm 3 mps 769 mmHg 78%

    20 September, Friday

    Time Temperature Precipitation Wind Pressure Humidity
    00:00 +8°C° 0 mm 2 mps 769 mmHg 80%
    01:00 +8°C° 0 mm 2 mps 769 mmHg 81%
    02:00 +8°C° 0 mm 2 mps 768 mmHg 83%
    03:00 +7°C° 0 mm 2 mps 768 mmHg 84%
    04:00 +7°C° 0 mm 2 mps 768 mmHg 85%
    05:00 +7°C° 0 mm 2 mps 768 mmHg 87%
    06:00 +7°C° 0 mm 3 mps 768 mmHg 88%
    07:00 +9°C° 0 mm 3 mps 768 mmHg 82%
    08:00 +11°C° 0 mm 4 mps 768 mmHg 75%
    09:00 +13°C° 0 mm 4 mps 768 mmHg 68%
    10:00 +14°C° 0 mm 4 mps 767 mmHg 65%
    11:00 +15°C° 0 mm 5 mps 767 mmHg 61%
    12:00 +16°C° 0 mm 5 mps 767 mmHg 57%
    13:00 +17°C° 0 mm 5 mps 766 mmHg 56%
    14:00 +17°C° 0 mm 5 mps 765 mmHg 55%
    15:00 +17°C° 0 mm 5 mps 764 mmHg 54%
    16:00 +16°C° 0 mm 5 mps 764 mmHg 58%
    17:00 +14°C° 0 mm 5 mps 764 mmHg 63%
    18:00 +13°C° 0 mm 4 mps 763 mmHg 67%
    19:00 +12°C° 0 mm 4 mps 763 mmHg 71%
    20:00 +11°C° 0 mm 4 mps 763 mmHg 76%
    21:00 +10°C° 0 mm 4 mps 763 mmHg 80%
    22:00 +10°C° 0 mm 4 mps 763 mmHg 81%
    23:00 +10°C° 0 mm 4 mps 762 mmHg 82%
    Show more